Terminal Aerodrome Forecast
Issued by NWS

Home | Current Version | Previous Version | Text Only | Print | Product List | Glossary On
Versions: 1 2 3 4 5 6 7 8 9 10 11 12
000
FTUS45 KRIW 310500
TAFCOD
TAF
KCOD 310534Z 3106/0106 VRB06KT P6SM FEW110 SCT250
     FM311700 03008KT P6SM SCT100
     FM312300 03006KT P6SM VCSH BKN100
     FM010300 VRB05KT P6SM FEW110
      AMD LTD TO CLD VIS AND WIND=

USA.gov is the U.S. government's official web portal to all federal, state and local government web resources and services.